Location: Fort Wayne
(41.1310°N, 85.1290°W)
Time: 08:37:24
(UTC-04:00)

Cosmos 1980 - Visible Passes

Search period start: 01 November 2014 00:00
Search period end: 10 November 2014 23:00
Orbit: 838 x 849 km, 71.0° (Epoch: 31 October)

Date Brightness Start Highest point End Pass type
(mag) Time Alt. Az. Time Alt. Az. Time Alt. Az.
01 Nov 6.1 20:01:45 10° W 20:05:38 19° NW 20:09:34 10° N visible
02 Nov 6.1 18:47:10 10° W 18:51:10 19° NW 18:55:11 10° N visible
03 Nov 6.0 18:32:36 10° W 18:36:41 20° NW 18:40:48 10° N visible
04 Nov 6.0 18:18:02 10° W 18:22:13 21° NW 18:26:25 10° N visible
05 Nov 5.9 18:03:28 10° W 18:07:44 22° NW 18:12:02 10° N visible
06 Nov 5.9 17:48:55 10° WSW 17:53:16 22° NW 17:57:38 10° N visible
